Epoch = 1998 Jan. 27.0 TT T = 1998 Jan. 30.32063 TT Peri. = 214.00492 e = 0.4134261 Node = 126.38469 2000.0 q = 2.3873870 AU Incl. = 1.08526 a = 4.0700534 AU n = 0.12003390 P = 8.21 years
m1 = 14.0 + 5 log d + 10.0 log r